TimeEDT,TemperatureF,Dew PointF,Humidity,Sea Level PressureIn,VisibilityMPH,Wind Direction,Wind SpeedMPH,Gust SpeedMPH,PrecipitationIn,Events,Conditions,WindDirDegrees,DateUTC
12:54 AM,37.9,25.0,60,29.68,10.0,NE,5.8,-,N/A,,Overcast,50,2013-03-25 04:54:00
1:54 AM,39.0,25.0,57,29.66,10.0,ENE,8.1,-,N/A,,Overcast,70,2013-03-25 05:54:00
2:54 AM,37.9,26.1,62,29.63,10.0,ENE,10.4,-,N/A,,Overcast,70,2013-03-25 06:54:00
3:54 AM,37.9,27.0,65,29.60,10.0,East,11.5,-,N/A,,Overcast,80,2013-03-25 07:54:00
4:54 AM,37.9,27.0,65,29.58,10.0,ENE,9.2,-,N/A,,Overcast,70,2013-03-25 08:54:00
5:34 AM,37.4,28.4,70,29.56,10.0,ENE,10.4,-,0.00,Snow,Light Snow,60,2013-03-25 09:34:00
5:54 AM,37.9,28.0,68,29.57,10.0,NE,12.7,-,0.00,Snow,Light Snow,50,2013-03-25 09:54:00
6:03 AM,37.4,28.4,70,29.58,8.0,NE,9.2,-,0.00,Snow,Light Snow,50,2013-03-25 10:03:00
6:09 AM,37.4,30.2,75,29.58,6.0,NE,8.1,-,0.00,Snow,Light Snow,40,2013-03-25 10:09:00
6:15 AM,35.6,30.2,81,29.58,5.0,NE,8.1,-,0.00,Snow,Light Snow,50,2013-03-25 10:15:00
6:27 AM,35.6,30.2,81,29.59,4.0,NNE,6.9,-,0.00,Snow,Light Snow,30,2013-03-25 10:27:00
6:51 AM,35.6,32.0,87,29.59,4.0,NE,9.2,-,0.02,Rain-Snow,Light Rain,40,2013-03-25 10:51:00
6:54 AM,35.1,32.0,89,29.59,4.0,NE,10.4,-,0.02,Rain-Snow,Light Rain,40,2013-03-25 10:54:00
7:08 AM,33.8,32.0,93,29.59,2.5,NNE,9.2,-,0.01,Rain-Snow,Light Rain,30,2013-03-25 11:08:00
7:11 AM,33.8,32.0,93,29.59,2.0,NNE,9.2,-,0.02,Rain-Snow,Light Snow,30,2013-03-25 11:11:00
7:18 AM,33.8,30.2,87,29.59,1.8,NNE,9.2,-,0.04,Snow,Light Snow,30,2013-03-25 11:18:00
7:29 AM,33.8,32.0,93,29.58,1.2,NNE,9.2,-,0.07,Rain-Snow,Light Snow,30,2013-03-25 11:29:00
7:35 AM,33.8,30.2,87,29.58,0.8,NE,9.2,-,0.08,Snow,Light Snow,40,2013-03-25 11:35:00
7:54 AM,33.1,30.9,92,29.58,0.8,NNE,10.4,-,0.12,Snow,Light Snow,30,2013-03-25 11:54:00
8:20 AM,33.8,32.0,93,29.57,1.0,NNE,11.5,25.3,0.04,Snow,Light Snow,30,2013-03-25 12:20:00
8:30 AM,33.8,32.0,93,29.57,2.0,NNE,12.7,-,0.04,Snow,Light Snow,30,2013-03-25 12:30:00
8:38 AM,33.8,32.0,93,29.57,2.5,NE,11.5,-,0.05,Snow,Light Snow,40,2013-03-25 12:38:00
8:54 AM,34.0,32.0,92,29.57,2.5,NE,13.8,-,0.05,Snow,Light Snow,40,2013-03-25 12:54:00
9:05 AM,33.8,32.0,93,29.56,2.5,NE,12.7,-,0.01,Rain-Snow,Light Rain,40,2013-03-25 13:05:00
9:21 AM,33.8,32.0,93,29.56,1.8,NE,12.7,-,0.03,Rain-Snow,Light Snow,40,2013-03-25 13:21:00
9:46 AM,33.8,32.0,93,29.56,2.5,NE,13.8,-,0.05,Rain-Snow,Light Snow,40,2013-03-25 13:46:00
9:54 AM,34.0,32.0,92,29.55,2.5,NE,13.8,-,0.06,Rain-Snow,Light Snow,40,2013-03-25 13:54:00
10:36 AM,33.8,32.0,93,29.54,3.0,NE,17.3,-,0.02,Rain-Snow,Light Rain,40,2013-03-25 14:36:00
10:54 AM,35.1,32.0,89,29.53,3.0,NE,18.4,23.0,0.04,Rain-Snow,Light Rain,40,2013-03-25 14:54:00
11:07 AM,35.6,33.8,93,29.52,3.0,NE,16.1,24.2,0.00,Rain-Snow,Light Rain,40,2013-03-25 15:07:00
11:21 AM,35.6,33.8,93,29.52,4.0,NE,18.4,-,0.01,Rain-Snow,Light Rain,40,2013-03-25 15:21:00
11:50 AM,35.6,33.8,93,29.51,5.0,NNE,19.6,26.5,0.01,Rain-Snow,Light Rain,30,2013-03-25 15:50:00
11:54 AM,36.0,33.1,89,29.51,5.0,NE,16.1,26.5,0.01,Rain-Snow,Light Rain,40,2013-03-25 15:54:00
12:15 PM,37.4,33.8,87,29.50,6.0,NE,20.7,29.9,0.00,Rain,Light Rain,40,2013-03-25 16:15:00
12:17 PM,37.4,33.8,87,29.50,7.0,NE,21.9,29.9,0.00,Rain,Light Rain,40,2013-03-25 16:17:00
12:54 PM,37.0,33.1,86,29.48,9.0,NE,20.7,29.9,0.00,Rain,Light Rain,40,2013-03-25 16:54:00
1:02 PM,37.4,32.0,81,29.48,10.0,NE,20.7,31.1,0.00,Rain,Light Rain,50,2013-03-25 17:02:00
1:21 PM,37.4,32.0,81,29.48,8.0,NE,21.9,32.2,0.00,Rain-Snow,Light Rain,40,2013-03-25 17:21:00
1:37 PM,37.4,32.0,81,29.49,6.0,NE,16.1,24.2,0.00,Rain-Snow,Light Snow,50,2013-03-25 17:37:00
1:47 PM,35.6,33.8,93,29.49,4.0,NE,18.4,26.5,0.00,Rain-Snow,Light Snow,50,2013-03-25 17:47:00
1:54 PM,36.0,33.1,89,29.49,3.0,NE,20.7,25.3,0.00,Snow,Light Snow,40,2013-03-25 17:54:00
1:58 PM,35.6,32.0,87,29.49,2.0,NE,24.2,28.8,0.01,Snow,Light Snow,40,2013-03-25 17:58:00
2:17 PM,35.6,33.8,93,29.49,3.0,NE,16.1,-,0.02,Rain-Snow,Light Rain,40,2013-03-25 18:17:00
2:48 PM,35.6,33.8,93,29.49,3.0,NE,11.5,19.6,0.04,Rain-Snow,Light Snow,40,2013-03-25 18:48:00
2:54 PM,36.0,33.1,89,29.49,3.0,NNE,12.7,19.6,0.05,Rain-Snow,Light Snow,30,2013-03-25 18:54:00
3:22 PM,35.6,33.8,93,29.49,2.5,North,9.2,-,0.02,Snow,Light Snow,360,2013-03-25 19:22:00
3:37 PM,35.6,32.0,87,29.49,1.5,North,9.2,-,0.03,Snow,Light Snow,350,2013-03-25 19:37:00
3:52 PM,35.6,33.8,93,29.49,2.5,North,9.2,-,0.05,Rain-Snow,Light Snow,360,2013-03-25 19:52:00
3:54 PM,35.1,33.1,92,29.49,2.5,North,9.2,-,0.05,Rain-Snow,Light Snow,360,2013-03-25 19:54:00
3:59 PM,35.6,33.8,93,29.49,3.0,North,9.2,-,0.00,Rain-Snow,Light Rain,360,2013-03-25 19:59:00
4:54 PM,35.1,33.1,92,29.51,3.0,North,6.9,-,0.04,Rain-Snow,Light Rain,360,2013-03-25 20:54:00
5:13 PM,37.4,33.8,87,29.51,5.0,NE,8.1,-,0.01,Rain,Light Rain,40,2013-03-25 21:13:00
5:41 PM,37.4,33.8,87,29.52,7.0,North,10.4,-,0.02,Rain,Light Rain,360,2013-03-25 21:41:00
5:54 PM,37.0,33.1,86,29.53,7.0,North,11.5,-,0.02,Rain,Light Rain,350,2013-03-25 21:54:00
6:13 PM,37.4,33.8,87,29.54,9.0,North,9.2,-,0.00,Rain,Light Rain,350,2013-03-25 22:13:00
6:28 PM,37.4,33.8,87,29.54,10.0,NNW,8.1,17.3,0.00,Rain,Light Rain,340,2013-03-25 22:28:00
6:51 PM,37.4,33.8,87,29.55,10.0,NW,9.2,18.4,0.00,Rain,Light Rain,310,2013-03-25 22:51:00
6:54 PM,37.9,34.0,86,29.56,10.0,NW,9.2,-,0.00,Rain,Light Rain,320,2013-03-25 22:54:00
7:54 PM,37.0,33.1,86,29.59,10.0,NW,10.4,20.7,0.00,Rain,Light Rain,310,2013-03-25 23:54:00
8:42 PM,37.4,33.8,87,29.60,9.0,WNW,9.2,-,0.00,Rain,Light Rain,300,2013-03-26 00:42:00
8:54 PM,37.0,34.0,89,29.61,9.0,WNW,11.5,18.4,0.00,Rain,Light Rain,300,2013-03-26 00:54:00
9:24 PM,37.4,33.8,87,29.62,10.0,WNW,8.1,-,0.00,Rain,Light Rain,300,2013-03-26 01:24:00
9:54 PM,37.0,33.1,86,29.63,10.0,NW,9.2,-,0.00,Rain,Light Rain,310,2013-03-26 01:54:00
10:54 PM,37.0,33.1,86,29.64,10.0,WNW,9.2,-,0.00,Rain,Light Rain,300,2013-03-26 02:54:00
11:01 PM,37.4,33.8,87,29.64,8.0,WNW,9.2,-,0.00,Rain,Light Rain,300,2013-03-26 03:01:00
11:54 PM,37.0,34.0,89,29.65,7.0,NW,9.2,-,0.00,Rain,Light Rain,310,2013-03-26 03:54:00